Regional Weather Roundup
Issued by NWS

Home | Current Version | Previous Version | Graphics & Text | Print | Product List | Glossary On
Versions: 1 2 3 4 5 6 7 8 9 10 11 12 13 14 15 16 17 18 19 20 21 22 23 24 25 26 27 28 29 30 31 32 33 34 35 36 37 38 39 40 41 42 43 44 45 46 47 48 49 50
000
ASUS43 KFSD 070710
RWRSD

WEATHER ROUNDUP FOR SOUTH DAKOTA
NATIONAL WEATHER SERVICE SIOUX FALLS SD
100 AM CST WED DEC 07 2016

NOTE: "FAIR" INDICATES FEW OR NO CLOUDS BELOW 12,000 FEET WITH NO
SIGNIFICANT WEATHER AND/OR OBSTRUCTIONS TO VISIBILITY.


SDZ001>005-009-010-012>017-070800-
NORTHWEST AND NORTH CENTRAL SOUTH DAKOTA

CITY           SKY/WX    TMP DP  RH WIND       PRES   REMARKS
BUFFALO          N/A      0  -6  76 NW26G32   30.05R WCI -25
FAITH            N/A      1  -4  79 NW22      30.11R WCI -21
MOBRIDGE       CLOUDY     9   0  67 NW25G32   30.05R WCI -12
$$

SDZ012>016-024>037-041>051-057-063-072>074-070800-
SOUTHWEST AND SOUTH CENTRAL SOUTH DAKOTA

CITY           SKY/WX    TMP DP  RH WIND       PRES   REMARKS
RAPID CTY ARPT CLOUDY     3  -4  72 N12       30.13R WCI -13
PIERRE         CLOUDY     9   2  73 NW23      30.14R WCI -11
CUSTER         CLOUDY    -2  -8  76 NW6       29.91S WCI -14
ELLSWORTH AFB  CLOUDY     5  -3  67 NW16      30.11R WCI -13
PHILIP         CLOUDY     5  -3  69 NW18G25   30.18R WCI -15
PINE RIDGE     CLOUDY     3  -1  83 CALM      30.13R
SPEARFISH      MOCLDY     3  -6  66 W13       30.11R WCI -14
WINNER         FAIR       9   1  70 W14       30.16S WCI  -7
$$

SDZ004>011-016>023-039-040-070800-
NORTHEAST SOUTH DAKOTA

CITY           SKY/WX    TMP DP  RH WIND       PRES   REMARKS
ABERDEEN       CLOUDY    11   2  67 W17G26    30.03R WCI  -6
WATERTOWN      CLOUDY     8   3  80 W15G30    29.95R WCI  -9
BROOKINGS      CLEAR      8   2  76 W24G32    29.98R WCI -13
SISSETON         N/A     12   5  73 NW25G35   29.91S WCI  -8
$$

SDZ017-020-022-023-036>040-048>070-070800-
SOUTHEAST SOUTH DAKOTA

CITY           SKY/WX    TMP DP  RH WIND       PRES   REMARKS
SIOUX FALLS    CLEAR     11   5  77 W21       30.06R WCI  -8
HURON          CLEAR      8   1  73 W21G26    30.11R WCI -12
CHAMBERLAIN    CLEAR     11   4  72 W18G29    30.15R WCI  -7
MITCHELL       CLEAR     10   3  73 W22       30.14S WCI -10
YANKTON        CLEAR     12   3  67 W14G21    30.15R WCI  -3
$$

ABBREVIATIONS USED IN REMARKS
   TC - TEMPERATURE IN CELSIUS
  WCI - WIND CHILL INDEX
   HX - HEAT INDEX
  VSB - VISIBILITY




USA.gov is the U.S. government's official web portal to all federal, state and local government web resources and services.